Time,TemperatureF,DewpointF,PressureIn,WindDirection,WindDirectionDegrees,WindSpeedMPH,WindSpeedGustMPH,Humidity,HourlyPrecipIn,Conditions,Clouds,dailyrainin,SoftwareType,DateUTC
2013-01-07 00:02:00,39.6,1.8,30.06,WSW,240,0.0,6.0,20,0.00,,,0.00,meteohub,2013-01-07 07:02:00,
2013-01-07 00:07:00,39.6,2.8,30.06,WSW,240,1.0,6.0,21,0.00,,,0.00,meteohub,2013-01-07 07:07:00,
2013-01-07 00:12:00,39.2,2.5,30.05,WSW,240,1.0,6.0,21,0.00,,,0.00,meteohub,2013-01-07 07:12:00,
2013-01-07 00:17:00,38.8,2.3,30.05,WSW,240,4.0,4.0,21,0.00,,,0.00,meteohub,2013-01-07 07:17:00,
2013-01-07 00:22:00,38.8,0.1,30.05,SW,219,4.0,8.0,19,0.00,,,0.00,meteohub,2013-01-07 07:22:00,
2013-01-07 00:27:00,39.2,0.3,30.04,WSW,257,6.0,8.0,19,0.00,,,0.00,meteohub,2013-01-07 07:27:00,
2013-01-07 00:32:00,39.7,0.9,30.05,WSW,240,3.0,8.0,19,0.00,,,0.00,meteohub,2013-01-07 07:32:00,
2013-01-07 00:37:00,40.1,1.0,30.05,SSW,209,2.0,8.0,19,0.00,,,0.00,meteohub,2013-01-07 07:37:00,
2013-01-07 00:42:00,39.9,2.1,30.05,SSW,210,3.0,7.0,20,0.00,,,0.00,meteohub,2013-01-07 07:42:00,
2013-01-07 00:47:00,39.6,2.8,30.04,WSW,240,0.0,6.0,21,0.00,,,0.00,meteohub,2013-01-07 07:47:00,
2013-01-07 00:52:00,39.2,3.6,30.04,WSW,240,2.0,6.0,22,0.00,,,0.00,meteohub,2013-01-07 07:52:00,
2013-01-07 00:57:00,38.8,1.2,30.04,SW,236,3.0,6.0,20,0.00,,,0.00,meteohub,2013-01-07 07:57:00,
2013-01-07 01:07:00,38.5,0.9,30.04,SW,229,4.0,6.0,20,0.00,,,0.00,meteohub,2013-01-07 08:07:00,
2013-01-07 01:12:00,38.7,1.0,30.04,SW,229,3.0,6.0,20,0.00,,,0.00,meteohub,2013-01-07 08:12:00,
2013-01-07 01:17:00,38.7,1.0,30.04,West,260,0.0,6.0,20,0.00,,,0.00,meteohub,2013-01-07 08:17:00,
2013-01-07 01:22:00,38.5,0.9,30.04,West,260,3.0,6.0,20,0.00,,,0.00,meteohub,2013-01-07 08:22:00,
2013-01-07 01:27:00,38.1,0.5,30.04,SW,225,3.0,6.0,20,0.00,,,0.00,meteohub,2013-01-07 08:27:00,
2013-01-07 01:32:00,37.8,0.3,30.04,SW,225,3.0,6.0,20,0.00,,,0.00,meteohub,2013-01-07 08:32:00,
2013-01-07 01:37:00,37.8,0.3,30.04,SW,225,3.0,6.0,20,0.00,,,0.00,meteohub,2013-01-07 08:37:00,
2013-01-07 01:42:00,37.6,1.2,30.04,SW,225,1.0,6.0,21,0.00,,,0.00,meteohub,2013-01-07 08:42:00,
2013-01-07 01:47:00,36.9,1.6,30.04,SW,225,2.0,5.0,22,0.00,,,0.00,meteohub,2013-01-07 08:47:00,
2013-01-07 01:52:00,36.3,1.0,30.03,WSW,246,1.0,5.0,22,0.00,,,0.00,meteohub,2013-01-07 08:52:00,
2013-01-07 01:57:00,36.0,1.8,30.03,WSW,245,3.0,7.0,23,0.00,,,0.00,meteohub,2013-01-07 08:57:00,
2013-01-07 02:02:00,35.6,1.4,30.03,WSW,239,3.0,7.0,23,0.00,,,0.00,meteohub,2013-01-07 09:02:00,
2013-01-07 02:07:00,35.4,1.2,30.03,SW,219,4.0,6.0,23,0.00,,,0.00,meteohub,2013-01-07 09:07:00,
2013-01-07 02:12:00,35.4,0.3,30.03,SW,219,4.0,6.0,22,0.00,,,0.00,meteohub,2013-01-07 09:12:00,
2013-01-07 02:17:00,35.2,1.0,30.03,SW,219,3.0,6.0,23,0.00,,,0.00,meteohub,2013-01-07 09:17:00,
2013-01-07 02:22:00,35.2,1.0,30.03,SW,219,2.0,5.0,23,0.00,,,0.00,meteohub,2013-01-07 09:22:00,
2013-01-07 02:27:00,35.1,1.0,30.03,SW,219,4.0,5.0,23,0.00,,,0.00,meteohub,2013-01-07 09:27:00,
2013-01-07 02:32:00,34.9,0.0,30.02,SW,233,4.0,6.0,22,0.00,,,0.00,meteohub,2013-01-07 09:32:00,
2013-01-07 02:37:00,35.4,-1.7,30.02,WSW,250,5.0,7.0,20,0.00,,,0.00,meteohub,2013-01-07 09:37:00,
2013-01-07 02:42:00,36.7,-1.7,30.03,WSW,250,4.0,7.0,19,0.00,,,0.00,meteohub,2013-01-07 09:42:00,
2013-01-07 02:47:00,37.6,2.1,30.03,WSW,250,1.0,8.0,22,0.00,,,0.00,meteohub,2013-01-07 09:47:00,
2013-01-07 02:52:00,37.2,2.8,30.03,WSW,250,2.0,8.0,23,0.00,,,0.00,meteohub,2013-01-07 09:52:00,
2013-01-07 02:57:00,36.0,2.7,30.03,SE,128,4.0,7.0,24,0.00,,,0.00,meteohub,2013-01-07 09:57:00,
2013-01-07 03:02:00,35.1,2.8,30.02,SE,128,0.0,6.0,25,0.00,,,0.00,meteohub,2013-01-07 10:02:00,
2013-01-07 03:07:00,34.3,2.1,30.02,SE,128,1.0,6.0,25,0.00,,,0.00,meteohub,2013-01-07 10:07:00,
2013-01-07 03:12:00,33.6,2.3,30.02,SE,128,2.0,6.0,26,0.00,,,0.00,meteohub,2013-01-07 10:12:00,
2013-01-07 03:17:00,33.1,1.9,30.02,SE,128,0.0,4.0,26,0.00,,,0.00,meteohub,2013-01-07 10:17:00,
2013-01-07 03:22:00,32.7,1.6,30.02,NNW,342,0.0,4.0,26,0.00,,,0.00,meteohub,2013-01-07 10:22:00,
2013-01-07 03:27:00,32.7,1.6,30.02,NNW,342,0.0,5.0,26,0.00,,,0.00,meteohub,2013-01-07 10:27:00,
2013-01-07 03:32:00,32.7,1.6,30.02,NNW,342,0.0,5.0,26,0.00,,,0.00,meteohub,2013-01-07 10:32:00,
2013-01-07 03:37:00,32.4,1.2,30.02,NNW,342,2.0,4.0,26,0.00,,,0.00,meteohub,2013-01-07 10:37:00,
2013-01-07 03:42:00,32.4,-0.4,30.01,WNW,295,1.0,4.0,24,0.00,,,0.00,meteohub,2013-01-07 10:42:00,
2013-01-07 03:47:00,32.7,0.7,30.01,South,173,4.0,4.0,25,0.00,,,0.00,meteohub,2013-01-07 10:47:00,
2013-01-07 03:52:00,32.7,0.7,30.01,South,173,4.0,5.0,25,0.00,,,0.00,meteohub,2013-01-07 10:52:00,
2013-01-07 03:57:00,32.9,0.9,30.01,SSW,196,5.0,6.0,25,0.00,,,0.00,meteohub,2013-01-07 10:57:00,
2013-01-07 04:02:00,32.7,0.7,30.01,SSW,196,4.0,7.0,25,0.00,,,0.00,meteohub,2013-01-07 11:02:00,
2013-01-07 04:07:00,32.7,0.7,30.00,SSW,196,3.0,7.0,25,0.00,,,0.00,meteohub,2013-01-07 11:07:00,
2013-01-07 04:12:00,32.4,1.2,30.00,SSW,196,3.0,7.0,26,0.00,,,0.00,meteohub,2013-01-07 11:12:00,
2013-01-07 04:17:00,32.2,1.2,30.00,SSW,202,1.0,6.0,26,0.00,,,0.00,meteohub,2013-01-07 11:17:00,
2013-01-07 04:22:00,31.8,0.9,30.00,WSW,252,4.0,5.0,26,0.00,,,0.00,meteohub,2013-01-07 11:22:00,
2013-01-07 04:27:00,31.8,-0.9,30.00,WSW,244,8.0,8.0,24,0.00,,,0.00,meteohub,2013-01-07 11:27:00,
2013-01-07 04:32:00,32.7,-0.9,30.00,WSW,258,9.0,10.0,23,0.00,,,0.00,meteohub,2013-01-07 11:32:00,
2013-01-07 04:37:00,34.0,-0.9,29.99,WSW,238,4.0,11.0,22,0.00,,,0.00,meteohub,2013-01-07 11:37:00,
2013-01-07 04:42:00,34.9,-1.1,29.99,SSW,198,3.0,11.0,21,0.00,,,0.00,meteohub,2013-01-07 11:42:00,
2013-01-07 04:47:00,35.8,-1.3,29.99,WSW,244,2.0,11.0,20,0.00,,,0.00,meteohub,2013-01-07 11:47:00,
2013-01-07 04:52:00,36.9,-0.4,29.99,SSW,202,3.0,11.0,20,0.00,,,0.00,meteohub,2013-01-07 11:52:00,
2013-01-07 04:57:00,36.9,1.6,30.00,SSW,202,0.0,9.0,22,0.00,,,0.00,meteohub,2013-01-07 11:57:00,
2013-01-07 05:02:00,35.8,1.6,30.00,NNW,336,5.0,6.0,23,0.00,,,0.00,meteohub,2013-01-07 12:02:00,
2013-01-07 05:07:00,34.3,0.3,30.01,NW,322,6.0,10.0,23,0.00,,,0.00,meteohub,2013-01-07 12:07:00,
2013-01-07 05:12:00,34.3,0.3,30.02,North,350,6.0,10.0,23,0.00,,,0.00,meteohub,2013-01-07 12:12:00,
2013-01-07 05:17:00,34.5,2.3,30.02,NW,312,8.0,11.0,25,0.00,,,0.00,meteohub,2013-01-07 12:17:00,
2013-01-07 05:22:00,34.5,2.3,30.02,NNW,335,1.0,13.0,25,0.00,,,0.00,meteohub,2013-01-07 12:22:00,
2013-01-07 05:27:00,34.3,3.0,30.02,WNW,292,3.0,13.0,26,0.00,,,0.00,meteohub,2013-01-07 12:27:00,
2013-01-07 05:32:00,33.8,3.4,30.02,West,266,2.0,13.0,27,0.00,,,0.00,meteohub,2013-01-07 12:32:00,
2013-01-07 05:37:00,33.4,3.0,30.02,WSW,238,2.0,7.0,27,0.00,,,0.00,meteohub,2013-01-07 12:37:00,
2013-01-07 05:42:00,32.9,3.4,30.02,WSW,242,3.0,7.0,28,0.00,,,0.00,meteohub,2013-01-07 12:42:00,
2013-01-07 05:47:00,32.7,3.2,30.02,SW,217,2.0,7.0,28,0.00,,,0.00,meteohub,2013-01-07 12:47:00,
2013-01-07 05:52:00,32.5,3.0,30.02,SW,230,2.0,7.0,28,0.00,,,0.00,meteohub,2013-01-07 12:52:00,
2013-01-07 05:57:00,32.5,2.3,30.03,SW,234,5.0,7.0,27,0.00,,,0.00,meteohub,2013-01-07 12:57:00,
2013-01-07 06:02:00,32.7,2.5,30.03,SW,233,1.0,5.0,27,0.00,,,0.00,meteohub,2013-01-07 13:02:00,
2013-01-07 06:07:00,32.7,1.6,30.04,WSW,244,2.0,5.0,26,0.00,,,0.00,meteohub,2013-01-07 13:07:00,
2013-01-07 06:12:00,32.7,1.6,30.04,West,267,1.0,6.0,26,0.00,,,0.00,meteohub,2013-01-07 13:12:00,
2013-01-07 06:17:00,32.7,1.6,30.04,West,275,2.0,7.0,26,0.00,,,0.00,meteohub,2013-01-07 13:17:00,
2013-01-07 06:22:00,32.7,1.6,30.04,WSW,246,4.0,7.0,26,0.00,,,0.00,meteohub,2013-01-07 13:22:00,
2013-01-07 06:27:00,32.7,1.6,30.04,West,265,8.0,8.0,26,0.00,,,0.00,meteohub,2013-01-07 13:27:00,
2013-01-07 06:32:00,32.7,2.5,30.04,West,267,3.0,8.0,27,0.00,,,0.00,meteohub,2013-01-07 13:32:00,
2013-01-07 06:37:00,32.7,2.5,30.04,West,264,2.0,8.0,27,0.00,,,0.00,meteohub,2013-01-07 13:37:00,
2013-01-07 06:42:00,32.7,1.6,30.05,SW,227,2.0,8.0,26,0.00,,,0.00,meteohub,2013-01-07 13:42:00,
2013-01-07 06:47:00,32.7,2.5,30.05,SW,227,3.0,6.0,27,0.00,,,0.00,meteohub,2013-01-07 13:47:00,
2013-01-07 06:52:00,32.5,2.3,30.05,WSW,247,3.0,6.0,27,0.00,,,0.00,meteohub,2013-01-07 13:52:00,
2013-01-07 06:57:00,32.5,2.3,30.05,West,270,7.0,7.0,27,0.00,,,0.00,meteohub,2013-01-07 13:57:00,
2013-01-07 07:02:00,32.5,1.4,30.05,West,270,4.0,7.0,26,0.00,,,0.00,meteohub,2013-01-07 14:02:00,
2013-01-07 07:07:00,32.7,0.7,30.05,West,266,4.0,7.0,25,0.00,,,0.00,meteohub,2013-01-07 14:07:00,
2013-01-07 07:12:00,33.1,1.0,30.05,WNW,284,5.0,8.0,25,0.00,,,0.00,meteohub,2013-01-07 14:12:00,
2013-01-07 07:17:00,33.4,1.4,30.05,West,281,5.0,8.0,25,0.00,,,0.00,meteohub,2013-01-07 14:17:00,
2013-01-07 07:22:00,33.4,0.5,30.05,West,275,5.0,8.0,24,0.00,,,0.00,meteohub,2013-01-07 14:22:00,
2013-01-07 07:27:00,33.8,0.9,30.05,West,279,7.0,9.0,24,0.00,,,0.00,meteohub,2013-01-07 14:27:00,
2013-01-07 07:32:00,34.0,0.1,30.06,WSW,253,4.0,9.0,23,0.00,,,0.00,meteohub,2013-01-07 14:32:00,
2013-01-07 07:37:00,34.2,0.1,30.06,WSW,252,2.0,9.0,23,0.00,,,0.00,meteohub,2013-01-07 14:37:00,
2013-01-07 07:42:00,34.0,0.1,30.06,SW,223,5.0,7.0,23,0.00,,,0.00,meteohub,2013-01-07 14:42:00,
2013-01-07 07:47:00,33.6,0.7,30.06,SW,226,4.0,6.0,24,0.00,,,0.00,meteohub,2013-01-07 14:47:00,
2013-01-07 07:52:00,33.4,-0.4,30.06,WSW,245,3.0,7.0,23,0.00,,,0.00,meteohub,2013-01-07 14:52:00,
2013-01-07 07:57:00,33.4,-1.3,30.06,WSW,248,4.0,7.0,22,0.00,,,0.00,meteohub,2013-01-07 14:57:00,
2013-01-07 08:02:00,33.8,-1.1,30.06,WSW,254,3.0,7.0,22,0.00,,,0.00,meteohub,2013-01-07 15:02:00,
2013-01-07 08:07:00,34.0,-0.9,30.06,WSW,254,4.0,7.0,22,0.00,,,0.00,meteohub,2013-01-07 15:07:00,
2013-01-07 08:12:00,34.0,0.1,30.06,WSW,254,3.0,7.0,23,0.00,,,0.00,meteohub,2013-01-07 15:12:00,
2013-01-07 08:17:00,33.8,0.0,30.06,WSW,254,2.0,6.0,23,0.00,,,0.00,meteohub,2013-01-07 15:17:00,
2013-01-07 08:22:00,33.6,-0.2,30.06,WSW,254,2.0,5.0,23,0.00,,,0.00,meteohub,2013-01-07 15:22:00,
2013-01-07 08:27:00,33.4,-0.4,30.06,WSW,254,4.0,5.0,23,0.00,,,0.00,meteohub,2013-01-07 15:27:00,
2013-01-07 08:32:00,33.4,-0.4,30.06,WSW,254,1.0,5.0,23,0.00,,,0.00,meteohub,2013-01-07 15:32:00,
2013-01-07 08:37:00,33.4,-0.4,30.06,WSW,254,2.0,5.0,23,0.00,,,0.00,meteohub,2013-01-07 15:37:00,
2013-01-07 08:42:00,33.6,-0.2,30.06,WSW,254,0.0,5.0,23,0.00,,,0.00,meteohub,2013-01-07 15:42:00,
2013-01-07 08:47:00,34.0,1.0,30.06,WSW,254,1.0,4.0,24,0.00,,,0.00,meteohub,2013-01-07 15:47:00,
2013-01-07 08:52:00,34.0,1.0,30.06,WSW,254,3.0,4.0,24,0.00,,,0.00,meteohub,2013-01-07 15:52:00,
2013-01-07 08:57:00,34.0,1.0,30.06,WSW,254,4.0,4.0,24,0.00,,,0.00,meteohub,2013-01-07 15:57:00,
2013-01-07 09:02:00,34.0,1.0,30.06,WSW,254,2.0,4.0,24,0.00,,,0.00,meteohub,2013-01-07 16:02:00,
2013-01-07 09:07:00,34.0,1.8,30.06,WSW,254,2.0,4.0,25,0.00,,,0.00,meteohub,2013-01-07 16:07:00,
2013-01-07 09:12:00,34.2,1.9,30.05,WSW,254,3.0,5.0,25,0.00,,,0.00,meteohub,2013-01-07 16:12:00,
2013-01-07 09:17:00,34.2,1.9,30.05,WSW,254,0.0,5.0,25,0.00,,,0.00,meteohub,2013-01-07 16:17:00,
2013-01-07 09:22:00,34.5,1.4,30.05,WSW,254,1.0,5.0,24,0.00,,,0.00,meteohub,2013-01-07 16:22:00,
2013-01-07 09:27:00,35.2,2.8,30.05,WSW,254,0.0,4.0,25,0.00,,,0.00,meteohub,2013-01-07 16:27:00,
2013-01-07 09:32:00,35.6,2.3,30.05,WSW,254,0.0,3.0,24,0.00,,,0.00,meteohub,2013-01-07 16:32:00,
2013-01-07 09:37:00,36.5,2.1,30.04,WSW,254,0.0,2.0,23,0.00,,,0.00,meteohub,2013-01-07 16:37:00,
2013-01-07 09:42:00,37.8,3.2,30.04,WSW,254,0.0,2.0,23,0.00,,,0.00,meteohub,2013-01-07 16:42:00,
2013-01-07 09:47:00,39.0,3.4,30.04,WSW,254,1.0,2.0,22,0.00,,,0.00,meteohub,2013-01-07 16:47:00,
2013-01-07 09:52:00,40.1,4.3,30.04,WSW,254,1.0,3.0,22,0.00,,,0.00,meteohub,2013-01-07 16:52:00,
2013-01-07 09:57:00,41.2,0.9,30.04,WSW,254,2.0,3.0,18,0.00,,,0.00,meteohub,2013-01-07 16:57:00,
2013-01-07 10:02:00,41.5,1.2,30.04,WSW,254,0.0,3.0,18,0.00,,,0.00,meteohub,2013-01-07 17:02:00,
2013-01-07 10:07:00,41.9,0.3,30.04,WSW,254,0.0,3.0,17,0.00,,,0.00,meteohub,2013-01-07 17:07:00,
2013-01-07 10:12:00,42.4,-0.6,30.04,WSW,254,0.0,3.0,16,0.00,,,0.00,meteohub,2013-01-07 17:12:00,
2013-01-07 10:17:00,43.3,-1.3,30.04,WSW,254,0.0,3.0,15,0.00,,,0.00,meteohub,2013-01-07 17:17:00,
2013-01-07 10:22:00,43.9,0.5,30.03,WSW,254,1.0,2.0,16,0.00,,,0.00,meteohub,2013-01-07 17:22:00,
2013-01-07 10:27:00,44.4,1.0,30.03,SSE,159,4.0,4.0,16,0.00,,,0.00,meteohub,2013-01-07 17:27:00,
2013-01-07 10:32:00,45.5,0.5,30.02,SSE,161,2.0,5.0,15,0.00,,,0.00,meteohub,2013-01-07 17:32:00,
2013-01-07 10:37:00,46.8,0.0,30.02,SE,136,5.0,7.0,14,0.00,,,0.00,meteohub,2013-01-07 17:37:00,
2013-01-07 10:42:00,48.2,-0.4,30.02,SE,137,6.0,7.0,13,0.00,,,0.00,meteohub,2013-01-07 17:42:00,
2013-01-07 10:47:00,49.6,-0.9,30.01,SSE,158,8.0,8.0,12,0.00,,,0.00,meteohub,2013-01-07 17:47:00,
2013-01-07 10:52:00,50.5,-0.2,30.01,South,171,5.0,8.0,12,0.00,,,0.00,meteohub,2013-01-07 17:52:00,
2013-01-07 10:57:00,51.3,0.3,30.00,South,173,7.0,8.0,12,0.00,,,0.00,meteohub,2013-01-07 17:57:00,
2013-01-07 11:02:00,51.6,-1.3,29.99,South,172,5.0,8.0,11,0.00,,,0.00,meteohub,2013-01-07 18:02:00,
2013-01-07 11:07:00,51.6,-1.3,29.99,SSE,165,2.0,11.0,11,0.00,,,0.00,meteohub,2013-01-07 18:07:00,
2013-01-07 11:12:00,52.0,-0.9,29.98,SSE,158,5.0,11.0,11,0.00,,,0.00,meteohub,2013-01-07 18:12:00,
2013-01-07 11:17:00,52.2,-0.8,29.98,SE,136,6.0,9.0,11,0.00,,,0.00,meteohub,2013-01-07 18:17:00,
2013-01-07 11:22:00,52.0,-0.9,29.98,SE,132,5.0,7.0,11,0.00,,,0.00,meteohub,2013-01-07 18:22:00,
2013-01-07 11:27:00,51.6,-1.3,29.97,East,94,4.0,7.0,11,0.00,,,0.00,meteohub,2013-01-07 18:27:00,
2013-01-07 11:32:00,51.4,-1.3,29.97,ESE,113,6.0,7.0,11,0.00,,,0.00,meteohub,2013-01-07 18:32:00,
2013-01-07 11:37:00,51.4,-1.3,29.96,ESE,120,5.0,7.0,11,0.00,,,0.00,meteohub,2013-01-07 18:37:00,
2013-01-07 11:42:00,51.4,0.5,29.96,ESE,106,4.0,7.0,12,0.00,,,0.00,meteohub,2013-01-07 18:42:00,
2013-01-07 11:47:00,51.4,2.1,29.96,East,92,2.0,8.0,13,0.00,,,0.00,meteohub,2013-01-07 18:47:00,
2013-01-07 11:52:00,51.3,3.7,29.96,ENE,63,3.0,8.0,14,0.00,,,0.00,meteohub,2013-01-07 18:52:00,
2013-01-07 11:57:00,51.1,1.9,29.95,East,86,3.0,8.0,13,0.00,,,0.00,meteohub,2013-01-07 18:57:00,
2013-01-07 12:02:00,50.7,3.2,29.95,ENE,64,0.0,7.0,14,0.00,,,0.00,meteohub,2013-01-07 19:02:00,
2013-01-07 12:07:00,50.7,4.6,29.95,ENE,71,5.0,6.0,15,0.00,,,0.00,meteohub,2013-01-07 19:07:00,
2013-01-07 12:12:00,51.1,5.0,29.95,East,84,3.0,6.0,15,0.00,,,0.00,meteohub,2013-01-07 19:12:00,
2013-01-07 12:17:00,51.1,5.0,29.94,East,85,5.0,8.0,15,0.00,,,0.00,meteohub,2013-01-07 19:17:00,
2013-01-07 12:22:00,51.1,1.9,29.94,East,82,4.0,8.0,13,0.00,,,0.00,meteohub,2013-01-07 19:22:00,
2013-01-07 12:27:00,51.3,3.7,29.94,NE,55,4.0,8.0,14,0.00,,,0.00,meteohub,2013-01-07 19:27:00,
2013-01-07 12:32:00,51.4,3.7,29.94,East,84,3.0,7.0,14,0.00,,,0.00,meteohub,2013-01-07 19:32:00,
2013-01-07 12:37:00,51.1,1.9,29.94,East,86,4.0,7.0,13,0.00,,,0.00,meteohub,2013-01-07 19:37:00,
2013-01-07 12:42:00,50.7,1.6,29.94,East,99,0.0,7.0,13,0.00,,,0.00,meteohub,2013-01-07 19:42:00,
2013-01-07 12:47:00,50.7,1.6,29.93,East,98,2.0,7.0,13,0.00,,,0.00,meteohub,2013-01-07 19:47:00,
2013-01-07 12:52:00,51.1,1.9,29.93,East,97,5.0,7.0,13,0.00,,,0.00,meteohub,2013-01-07 19:52:00,
2013-01-07 12:57:00,51.3,2.1,29.92,East,94,2.0,6.0,13,0.00,,,0.00,meteohub,2013-01-07 19:57:00,
2013-01-07 13:02:00,52.0,2.7,29.92,East,97,1.0,6.0,13,0.00,,,0.00,meteohub,2013-01-07 20:02:00,
2013-01-07 13:07:00,52.3,2.8,29.92,ENE,78,3.0,7.0,13,0.00,,,0.00,meteohub,2013-01-07 20:07:00,
2013-01-07 13:12:00,52.5,1.4,29.92,ENE,67,2.0,7.0,12,0.00,,,0.00,meteohub,2013-01-07 20:12:00,
2013-01-07 13:17:00,52.2,1.0,29.91,ESE,111,2.0,7.0,12,0.00,,,0.00,meteohub,2013-01-07 20:17:00,
2013-01-07 13:22:00,52.0,0.9,29.91,East,85,5.0,7.0,12,0.00,,,0.00,meteohub,2013-01-07 20:22:00,
2013-01-07 13:27:00,51.6,2.3,29.91,East,88,0.0,7.0,13,0.00,,,0.00,meteohub,2013-01-07 20:27:00,
2013-01-07 13:32:00,51.6,0.7,29.92,East,88,3.0,6.0,12,0.00,,,0.00,meteohub,2013-01-07 20:32:00,
2013-01-07 13:37:00,51.6,0.7,29.91,East,96,1.0,7.0,12,0.00,,,0.00,meteohub,2013-01-07 20:37:00,
2013-01-07 13:42:00,51.6,0.7,29.91,ESE,109,7.0,7.0,12,0.00,,,0.00,meteohub,2013-01-07 20:42:00,
2013-01-07 13:47:00,51.6,0.7,29.91,ESE,123,6.0,8.0,12,0.00,,,0.00,meteohub,2013-01-07 20:47:00,
2013-01-07 13:52:00,52.2,1.0,29.90,East,98,4.0,8.0,12,0.00,,,0.00,meteohub,2013-01-07 20:52:00,
2013-01-07 13:57:00,52.3,1.2,29.90,East,97,5.0,8.0,12,0.00,,,0.00,meteohub,2013-01-07 20:57:00,
2013-01-07 14:02:00,52.2,-0.8,29.90,SE,134,6.0,7.0,11,0.00,,,0.00,meteohub,2013-01-07 21:02:00,
2013-01-07 14:07:00,52.0,-0.9,29.89,SE,138,2.0,9.0,11,0.00,,,0.00,meteohub,2013-01-07 21:07:00,
2013-01-07 14:12:00,52.0,-0.9,29.89,ESE,121,5.0,9.0,11,0.00,,,0.00,meteohub,2013-01-07 21:12:00,
2013-01-07 14:17:00,52.2,-2.7,29.90,SSE,167,6.0,9.0,10,0.00,,,0.00,meteohub,2013-01-07 21:17:00,
2013-01-07 14:22:00,52.3,-0.6,29.89,SSE,163,6.0,9.0,11,0.00,,,0.00,meteohub,2013-01-07 21:22:00,
2013-01-07 14:27:00,52.5,-0.6,29.89,SSE,166,2.0,9.0,11,0.00,,,0.00,meteohub,2013-01-07 21:27:00,
2013-01-07 14:32:00,52.5,-2.6,29.89,SE,143,2.0,7.0,10,0.00,,,0.00,meteohub,2013-01-07 21:32:00,
2013-01-07 14:37:00,52.3,-2.7,29.89,SE,130,2.0,7.0,10,0.00,,,0.00,meteohub,2013-01-07 21:37:00,
2013-01-07 14:42:00,52.2,-2.7,29.89,SE,138,0.0,9.0,10,0.00,,,0.00,meteohub,2013-01-07 21:42:00,
2013-01-07 14:47:00,52.0,-2.9,29.89,SSE,150,5.0,9.0,10,0.00,,,0.00,meteohub,2013-01-07 21:47:00,
2013-01-07 14:52:00,52.0,-2.9,29.89,SE,132,5.0,9.0,10,0.00,,,0.00,meteohub,2013-01-07 21:52:00,
2013-01-07 14:57:00,52.0,-0.9,29.89,ESE,110,2.0,9.0,11,0.00,,,0.00,meteohub,2013-01-07 21:57:00,
2013-01-07 15:02:00,51.6,-1.3,29.89,ESE,121,2.0,9.0,11,0.00,,,0.00,meteohub,2013-01-07 22:02:00,
2013-01-07 15:07:00,51.6,-1.3,29.89,ESE,104,2.0,9.0,11,0.00,,,0.00,meteohub,2013-01-07 22:07:00,
2013-01-07 15:12:00,51.4,-1.3,29.89,ESE,105,2.0,9.0,11,0.00,,,0.00,meteohub,2013-01-07 22:12:00,
2013-01-07 15:17:00,51.4,-3.3,29.89,ESE,110,4.0,8.0,10,0.00,,,0.00,meteohub,2013-01-07 22:17:00,
2013-01-07 15:22:00,51.4,-1.3,29.88,ESE,118,5.0,7.0,11,0.00,,,0.00,meteohub,2013-01-07 22:22:00,
2013-01-07 15:27:00,51.3,-1.5,29.88,SE,137,2.0,7.0,11,0.00,,,0.00,meteohub,2013-01-07 22:27:00,
2013-01-07 15:32:00,51.1,-1.7,29.88,SE,136,6.0,7.0,11,0.00,,,0.00,meteohub,2013-01-07 22:32:00,
2013-01-07 15:37:00,51.1,-1.7,29.88,SE,142,5.0,8.0,11,0.00,,,0.00,meteohub,2013-01-07 22:37:00,
2013-01-07 15:42:00,50.7,-1.8,29.87,SE,140,5.0,8.0,11,0.00,,,0.00,meteohub,2013-01-07 22:42:00,
2013-01-07 15:47:00,50.5,-2.0,29.87,SE,134,4.0,8.0,11,0.00,,,0.00,meteohub,2013-01-07 22:47:00,
2013-01-07 15:52:00,50.4,-2.2,29.87,ESE,108,2.0,7.0,11,0.00,,,0.00,meteohub,2013-01-07 22:52:00,
2013-01-07 16:02:00,49.8,-0.8,29.87,ESE,119,4.0,7.0,12,0.00,,,0.00,meteohub,2013-01-07 23:02:00,
2013-01-07 16:07:00,49.6,-0.9,29.87,ESE,119,4.0,7.0,12,0.00,,,0.00,meteohub,2013-01-07 23:07:00,
2013-01-07 16:12:00,49.5,-1.1,29.87,ESE,120,2.0,7.0,12,0.00,,,0.00,meteohub,2013-01-07 23:12:00,
2013-01-07 16:17:00,49.1,-1.3,29.86,ESE,120,0.0,6.0,12,0.00,,,0.00,meteohub,2013-01-07 23:17:00,
2013-01-07 16:22:00,48.6,0.0,29.86,ESE,120,1.0,6.0,13,0.00,,,0.00,meteohub,2013-01-07 23:22:00,
2013-01-07 16:27:00,48.4,-0.2,29.86,ESE,120,2.0,6.0,13,0.00,,,0.00,meteohub,2013-01-07 23:27:00,
2013-01-07 16:32:00,47.8,0.9,29.86,ESE,120,2.0,5.0,14,0.00,,,0.00,meteohub,2013-01-07 23:32:00,
2013-01-07 16:37:00,47.5,0.7,29.86,ESE,120,0.0,5.0,14,0.00,,,0.00,meteohub,2013-01-07 23:37:00,
2013-01-07 16:42:00,46.8,0.0,29.87,ESE,120,1.0,5.0,14,0.00,,,0.00,meteohub,2013-01-07 23:42:00,
2013-01-07 16:47:00,46.0,0.9,29.87,ESE,120,1.0,4.0,15,0.00,,,0.00,meteohub,2013-01-07 23:47:00,
2013-01-07 16:52:00,45.1,1.6,29.87,ESE,120,2.0,4.0,16,0.00,,,0.00,meteohub,2013-01-07 23:52:00,
2013-01-07 16:57:00,44.4,2.3,29.87,ESE,120,2.0,4.0,17,0.00,,,0.00,meteohub,2013-01-07 23:57:00,
2013-01-07 17:02:00,43.9,1.9,29.87,South,176,5.0,5.0,17,0.00,,,0.00,meteohub,2013-01-08 00:02:00,
2013-01-07 17:07:00,43.2,2.5,29.87,SW,222,3.0,5.0,18,0.00,,,0.00,meteohub,2013-01-08 00:07:00,
2013-01-07 17:12:00,42.3,2.8,29.87,SW,222,2.0,5.0,19,0.00,,,0.00,meteohub,2013-01-08 00:12:00,
2013-01-07 17:17:00,41.5,3.4,29.87,SW,222,2.0,5.0,20,0.00,,,0.00,meteohub,2013-01-08 00:17:00,
2013-01-07 17:22:00,40.8,2.8,29.87,SW,227,2.0,5.0,20,0.00,,,0.00,meteohub,2013-01-08 00:22:00,
2013-01-07 17:27:00,40.3,3.4,29.87,WSW,240,4.0,6.0,21,0.00,,,0.00,meteohub,2013-01-08 00:27:00,
2013-01-07 17:32:00,39.7,3.0,29.87,WSW,240,2.0,6.0,21,0.00,,,0.00,meteohub,2013-01-08 00:32:00,
2013-01-07 17:37:00,39.4,2.7,29.87,WSW,240,2.0,6.0,21,0.00,,,0.00,meteohub,2013-01-08 00:37:00,
2013-01-07 17:42:00,38.8,3.2,29.87,WSW,240,2.0,6.0,22,0.00,,,0.00,meteohub,2013-01-08 00:42:00,
2013-01-07 17:52:00,37.9,3.4,29.87,WSW,240,1.0,5.0,23,0.00,,,0.00,meteohub,2013-01-08 00:52:00,
2013-01-07 17:57:00,37.6,3.2,29.87,WSW,240,2.0,5.0,23,0.00,,,0.00,meteohub,2013-01-08 00:57:00,
2013-01-07 18:02:00,37.2,2.8,29.87,WSW,240,2.0,5.0,23,0.00,,,0.00,meteohub,2013-01-08 01:02:00,
2013-01-07 18:07:00,36.9,2.5,29.87,WSW,240,4.0,5.0,23,0.00,,,0.00,meteohub,2013-01-08 01:07:00,
2013-01-07 18:12:00,36.9,2.5,29.87,WSW,240,3.0,6.0,23,0.00,,,0.00,meteohub,2013-01-08 01:12:00,
2013-01-07 18:17:00,36.7,3.2,29.87,WSW,254,7.0,7.0,24,0.00,,,0.00,meteohub,2013-01-08 01:17:00,
2013-01-07 18:22:00,36.5,3.2,29.87,WSW,242,2.0,7.0,24,0.00,,,0.00,meteohub,2013-01-08 01:22:00,
2013-01-07 18:27:00,36.3,3.0,29.86,WSW,242,3.0,7.0,24,0.00,,,0.00,meteohub,2013-01-08 01:27:00,
2013-01-07 18:32:00,36.0,2.7,29.86,WSW,243,3.0,7.0,24,0.00,,,0.00,meteohub,2013-01-08 01:32:00,
2013-01-07 18:37:00,36.0,2.7,29.86,SW,222,4.0,5.0,24,0.00,,,0.00,meteohub,2013-01-08 01:37:00,
2013-01-07 18:42:00,36.0,2.7,29.86,WSW,246,2.0,6.0,24,0.00,,,0.00,meteohub,2013-01-08 01:42:00,
2013-01-07 18:52:00,35.8,2.5,29.86,WSW,242,4.0,6.0,24,0.00,,,0.00,meteohub,2013-01-08 01:52:00,
2013-01-07 18:57:00,35.6,2.3,29.85,SW,227,3.0,7.0,24,0.00,,,0.00,meteohub,2013-01-08 01:57:00,
2013-01-07 19:02:00,35.8,2.5,29.85,SW,236,5.0,7.0,24,0.00,,,0.00,meteohub,2013-01-08 02:02:00,
2013-01-07 19:07:00,35.6,2.3,29.85,WSW,238,4.0,7.0,24,0.00,,,0.00,meteohub,2013-01-08 02:07:00,
2013-01-07 19:12:00,35.6,1.4,29.85,WSW,240,3.0,6.0,23,0.00,,,0.00,meteohub,2013-01-08 02:12:00,
2013-01-07 19:17:00,35.8,1.6,29.84,SW,236,2.0,6.0,23,0.00,,,0.00,meteohub,2013-01-08 02:17:00,
2013-01-07 19:22:00,35.6,1.4,29.84,WSW,242,2.0,6.0,23,0.00,,,0.00,meteohub,2013-01-08 02:22:00,
2013-01-07 19:27:00,35.4,1.2,29.84,WSW,242,3.0,7.0,23,0.00,,,0.00,meteohub,2013-01-08 02:27:00,
2013-01-07 19:32:00,35.2,1.0,29.84,SW,222,4.0,8.0,23,0.00,,,0.00,meteohub,2013-01-08 02:32:00,
2013-01-07 19:37:00,35.1,1.0,29.84,WSW,239,3.0,8.0,23,0.00,,,0.00,meteohub,2013-01-08 02:37:00,
2013-01-07 19:42:00,35.1,1.0,29.84,WSW,251,4.0,8.0,23,0.00,,,0.00,meteohub,2013-01-08 02:42:00,
2013-01-07 19:47:00,35.1,1.0,29.84,WSW,254,4.0,8.0,23,0.00,,,0.00,meteohub,2013-01-08 02:47:00,
2013-01-07 19:52:00,35.2,1.0,29.84,SW,231,8.0,8.0,23,0.00,,,0.00,meteohub,2013-01-08 02:52:00,
2013-01-07 19:57:00,35.8,0.7,29.83,SW,232,3.0,10.0,22,0.00,,,0.00,meteohub,2013-01-08 02:57:00,
2013-01-07 20:02:00,36.5,0.3,29.83,SW,235,3.0,10.0,21,0.00,,,0.00,meteohub,2013-01-08 03:02:00,
2013-01-07 20:07:00,36.9,-0.4,29.83,SW,235,5.0,10.0,20,0.00,,,0.00,meteohub,2013-01-08 03:07:00,
2013-01-07 20:12:00,36.9,-0.4,29.83,SW,225,5.0,8.0,20,0.00,,,0.00,meteohub,2013-01-08 03:12:00,
2013-01-07 20:17:00,36.7,-0.6,29.83,SW,236,3.0,8.0,20,0.00,,,0.00,meteohub,2013-01-08 03:17:00,
2013-01-07 20:22:00,36.5,-0.8,29.83,WSW,255,4.0,8.0,20,0.00,,,0.00,meteohub,2013-01-08 03:22:00,
2013-01-07 20:27:00,36.5,-1.8,29.83,WSW,242,4.0,9.0,19,0.00,,,0.00,meteohub,2013-01-08 03:27:00,
2013-01-07 20:32:00,36.5,-4.2,29.83,WSW,255,5.0,9.0,17,0.00,,,0.00,meteohub,2013-01-08 03:32:00,
2013-01-07 20:37:00,36.9,-3.8,29.83,North,351,4.0,9.0,17,0.00,,,0.00,meteohub,2013-01-08 03:37:00,
2013-01-07 20:42:00,36.7,-0.6,29.83,NE,51,1.0,8.0,20,0.00,,,0.00,meteohub,2013-01-08 03:42:00,
2013-01-07 20:47:00,36.0,0.9,29.83,NE,52,4.0,8.0,22,0.00,,,0.00,meteohub,2013-01-08 03:47:00,
2013-01-07 20:52:00,35.1,1.0,29.83,NE,52,2.0,7.0,23,0.00,,,0.00,meteohub,2013-01-08 03:52:00,
2013-01-07 20:57:00,34.3,0.3,29.83,NE,52,3.0,5.0,23,0.00,,,0.00,meteohub,2013-01-08 03:57:00,
2013-01-07 21:02:00,33.8,0.0,29.83,North,9,4.0,5.0,23,0.00,,,0.00,meteohub,2013-01-08 04:02:00,
2013-01-07 21:07:00,33.3,0.3,29.83,NNW,331,3.0,7.0,24,0.00,,,0.00,meteohub,2013-01-08 04:07:00,
2013-01-07 21:12:00,32.7,0.0,29.83,NNW,330,2.0,7.0,24,0.00,,,0.00,meteohub,2013-01-08 04:12:00,
2013-01-07 21:17:00,32.4,0.5,29.83,West,267,3.0,7.0,25,0.00,,,0.00,meteohub,2013-01-08 04:17:00,
2013-01-07 21:22:00,31.8,0.9,29.83,West,268,3.0,4.0,26,0.00,,,0.00,meteohub,2013-01-08 04:22:00,
2013-01-07 21:27:00,31.5,-0.4,29.83,West,268,1.0,4.0,25,0.00,,,0.00,meteohub,2013-01-08 04:27:00,
2013-01-07 21:32:00,31.3,1.2,29.83,North,11,5.0,5.0,27,0.00,,,0.00,meteohub,2013-01-08 04:32:00,
2013-01-07 21:37:00,30.6,3.6,29.83,North,11,5.0,7.0,31,0.00,,,0.00,meteohub,2013-01-08 04:37:00,
2013-01-07 21:42:00,30.0,3.0,29.83,SW,227,2.0,7.0,31,0.00,,,0.00,meteohub,2013-01-08 04:42:00,
2013-01-07 21:47:00,29.7,3.4,29.83,SW,227,2.0,7.0,32,0.00,,,0.00,meteohub,2013-01-08 04:47:00,
2013-01-07 21:52:00,29.3,2.5,29.83,SW,227,0.0,5.0,31,0.00,,,0.00,meteohub,2013-01-08 04:52:00,
2013-01-07 21:57:00,28.9,2.1,29.83,SW,227,0.0,3.0,31,0.00,,,0.00,meteohub,2013-01-08 04:57:00,
2013-01-07 22:02:00,28.6,2.5,29.83,SW,227,0.0,4.0,32,0.00,,,0.00,meteohub,2013-01-08 05:02:00,
2013-01-07 22:12:00,27.9,1.8,29.82,SW,227,3.0,4.0,32,0.00,,,0.00,meteohub,2013-01-08 05:12:00,
2013-01-07 22:17:00,27.5,1.6,29.81,SW,227,1.0,4.0,32,0.00,,,0.00,meteohub,2013-01-08 05:17:00,
2013-01-07 22:22:00,27.1,2.5,29.82,SW,227,4.0,4.0,34,0.00,,,0.00,meteohub,2013-01-08 05:22:00,
2013-01-07 22:27:00,27.0,2.3,29.82,East,96,0.0,5.0,34,0.00,,,0.00,meteohub,2013-01-08 05:27:00,
2013-01-07 22:32:00,26.8,2.8,29.82,East,96,0.0,5.0,35,0.00,,,0.00,meteohub,2013-01-08 05:32:00,
2013-01-07 22:37:00,26.6,2.7,29.81,ESE,118,2.0,5.0,35,0.00,,,0.00,meteohub,2013-01-08 05:37:00,
2013-01-07 22:42:00,26.2,2.3,29.81,ESE,117,4.0,4.0,35,0.00,,,0.00,meteohub,2013-01-08 05:42:00,
2013-01-07 22:52:00,26.2,2.8,29.81,ESE,116,0.0,5.0,36,0.00,,,0.00,meteohub,2013-01-08 05:52:00,
2013-01-07 22:57:00,26.1,3.4,29.81,ESE,116,0.0,5.0,37,0.00,,,0.00,meteohub,2013-01-08 05:57:00,
2013-01-07 23:02:00,25.9,3.7,29.81,ESE,116,0.0,5.0,38,0.00,,,0.00,meteohub,2013-01-08 06:02:00,
2013-01-07 23:07:00,25.5,3.9,29.81,ESE,116,0.0,1.0,39,0.00,,,0.00,meteohub,2013-01-08 06:07:00,
2013-01-07 23:12:00,25.2,4.3,29.80,ESE,116,0.0,1.0,40,0.00,,,0.00,meteohub,2013-01-08 06:12:00,
2013-01-07 23:17:00,24.8,3.9,29.81,ESE,116,0.0,2.0,40,0.00,,,0.00,meteohub,2013-01-08 06:17:00,
2013-01-07 23:22:00,24.4,4.1,29.81,NNE,13,2.0,4.0,41,0.00,,,0.00,meteohub,2013-01-08 06:22:00,
2013-01-07 23:27:00,24.3,4.5,29.81,NNE,13,0.0,4.0,42,0.00,,,0.00,meteohub,2013-01-08 06:27:00,
2013-01-07 23:37:00,23.9,5.2,29.81,NNE,13,1.0,3.0,44,0.00,,,0.00,meteohub,2013-01-08 06:37:00,
2013-01-07 23:42:00,23.5,4.3,29.81,NNE,13,0.0,2.0,43,0.00,,,0.00,meteohub,2013-01-08 06:42:00,
2013-01-07 23:47:00,23.5,4.8,29.81,NNE,13,0.0,2.0,44,0.00,,,0.00,meteohub,2013-01-08 06:47:00,
2013-01-07 23:52:00,23.5,5.4,29.80,NNE,13,2.0,2.0,45,0.00,,,0.00,meteohub,2013-01-08 06:52:00,
2013-01-07 23:57:00,23.5,5.4,29.80,NNE,13,3.0,3.0,45,0.00,,,0.00,meteohub,2013-01-08 06:57:00,